Location: Oklahoma City
(35.4680°N, 97.5160°W)
Time: 21:13:31
(UTC-05:00)

ISS - All Passes

Search period start: 23 March 2017 00:00
Search period end: 02 April 2017 00:00
Orbit: 399 x 409 km, 51.6° (Epoch: 24 March)

Date Brightness Start Highest point End Pass type
(mag) Time Alt. Az. Time Alt. Az. Time Alt. Az.
23 Mar - 04:36:38 10° N 04:38:24 14° NNE 04:40:10 10° ENE visible
23 Mar - 06:11:57 10° NW 06:15:15 82° SW 06:18:32 10° SE visible
23 Mar - 21:14:58 10° SSE 21:16:34 13° SE 21:18:11 10° E night (unlit)
23 Mar - 22:49:34 10° WSW 22:52:43 46° NW 22:55:54 10° NE night (unlit)
24 Mar - 05:19:41 10° NW 05:22:53 46° NE 05:26:05 10° ESE visible
24 Mar - 06:57:20 10° W 06:59:03 14° SW 07:00:46 10° SSW visible
24 Mar - 21:57:06 10° SW 22:00:21 80° SE 22:03:37 10° NE visible
24 Mar - 23:35:28 10° WNW 23:37:11 14° NNW 23:38:56 10° N night (unlit)
25 Mar - 04:27:37 10° NNW 04:30:26 25° NNE 04:33:14 10° E visible
25 Mar - 06:04:00 10° WNW 06:06:52 28° SW 06:09:44 10° SSE visible
25 Mar - 21:05:05 10° SSW 21:08:03 35° SE 21:11:04 10° ENE visible
25 Mar - 22:42:01 10° W 22:44:36 21° NNW 22:47:11 10° NNE visible
26 Mar - 03:35:46 10° NNW 03:37:52 16° NNE 03:39:58 10° ENE night (unlit)
26 Mar - 05:11:20 10° NW 05:14:36 61° SW 05:17:51 10° SE visible
26 Mar - 20:13:40 10° S 20:15:51 17° SE 20:18:01 10° E visible
26 Mar - 21:49:02 10° WSW 21:52:05 37° NW 21:55:09 10° NNE visible
27 Mar - 02:44:32 10° N 02:45:12 10° NNE 02:45:51 10° NE night (unlit)
27 Mar - 04:18:58 10° NW 04:22:14 60° NE 04:25:29 10° ESE night (unlit)
27 Mar - 05:57:40 10° WSW 05:58:18 10° SW 05:58:56 10° SW night (unlit)
27 Mar - 20:56:25 10° SW 20:59:39 78° NW 21:02:55 10° NE visible
27 Mar - 22:35:19 10° NW 22:36:36 12° NNW 22:37:52 10° N visible
28 Mar - 03:26:48 10° NNW 03:29:46 30° NE 03:32:44 10° E night (unlit)
28 Mar - 05:03:31 10° WNW 05:06:06 22° SW 05:08:42 10° S night (unlit)
28 Mar - 20:04:11 10° SSW 20:07:18 46° SE 20:10:26 10° ENE daylight
28 Mar - 21:41:36 10° WNW 21:43:55 18° NNW 21:46:16 10° NNE visible
29 Mar - 02:34:49 10° NNW 02:37:11 18° NNE 02:39:34 10° ENE night (unlit)
29 Mar - 04:10:39 10° WNW 04:13:49 46° SW 04:16:59 10° SSE night (unlit)
29 Mar - 19:12:29 10° S 19:15:01 21° SE 19:17:33 10° ENE daylight
29 Mar - 20:48:26 10° W 20:51:21 30° NW 20:54:17 10° NNE visible
30 Mar - 01:43:12 10° N 01:44:31 12° NNE 01:45:51 10° NE night (unlit)
30 Mar - 03:18:09 10° NW 03:21:27 78° NE 03:24:44 10° SE night (unlit)
30 Mar - 18:22:28 10° SE 18:22:48 10° SE 18:23:07 10° ESE daylight
30 Mar - 19:55:39 10° WSW 19:58:51 59° NW 20:02:04 10° NE daylight
30 Mar - 21:35:23 10° NNW 21:35:53 10° NNW 21:36:23 10° NNW visible
31 Mar - 02:25:53 10° NNW 02:28:58 37° NE 02:32:04 10° ESE night (unlit)
31 Mar - 04:02:59 10° W 04:05:13 17° SW 04:07:26 10° S night (unlit)
31 Mar - 19:03:14 10° SW 19:06:25 61° SE 19:09:38 10° NE daylight
31 Mar - 20:41:07 10° WNW 20:43:09 15° NNW 20:45:12 10° N visible
01 Apr - 01:33:48 10° NNW 01:36:24 21° NNE 01:39:00 10° E night (unlit)
01 Apr - 03:09:53 10° WNW 03:12:56 35° SW 03:15:58 10° SSE night (unlit)
01 Apr - 18:11:17 10° S 18:14:05 27° SE 18:16:54 10° ENE daylight
01 Apr - 19:47:45 10° W 19:50:30 25° NNW 19:53:16 10° NNE daylight
